Flag for Belgium Weather past 2 weeks in Mons, Belgium

Now
63 °F

Mild.


Feels Like: 63 °F
Forecast: 45 / 66 °F
Wind: 1 mph from North

Location: Chievres


UV Index: 0 (Low)

Visibility: 4 mi


Pressure: 29.65 "Hg

Humidity: 64%

Dew point: 50 °F

Location of MonsLocation

Historic Weather in Mons

°F

Mons temperature yesterday

Maximum temperature yesterday: 64 °F (at 12:25 PM)
Minimum temperature yesterday: 50 °F (at 4:25 AM)
Average temperature yesterday: 57 °F

Past Weeks' High & Low Weather Summary

 TemperatureHumidityPressure
High70 °F (Apr 7, 2:25 PM)100% (Apr 9, 2:25 AM)30.42 "Hg (Apr 9, 2:25 AM)
Low32 °F (Apr 15, 5:25 AM)31% (Apr 16, 7:25 PM)29.62 "Hg (Apr 20, 3:25 PM)
Average50 °F74%30.09 "Hg
* Reported Apr 6 10:25 AM — Apr 21 10:54 AM, Mons, Weather by CustomWeather, © 2014

Note: Actual official high and low records may vary slightly from our data, if they occured in-between our weather recording intervals... More about our weather records

Advertising

Historic Weather Conditions — Data for Previous 24 hours

 ConditionsComfort  
Time TempWeatherWind HumidityBarometerVisibility
10:54 AM
Apr 21
59 °FCool.1 mph72%29.65 "Hg5 mi
10:25 AM59 °FCool.2 mph68%29.65 "Hg6 mi
9:46 AM57 °FCool.2 mph77%29.65 "Hg4 mi
9:25 AM54 °FCool.2 mph82%29.65 "Hg3 mi
8:25 AM50 °FCool.1 mph88%29.65 "HgN/A
7:57 AM45 °FQuite cool.1 mph100%29.65 "Hg4 mi
7:25 AM45 °FQuite cool.2 mph93%29.65 "Hg4 mi
6:25 AM45 °FQuite cool.1 mph93%29.65 "HgN/A
6:03 AM45 °FQuite cool.1 mph93%29.65 "Hg3 mi
5:25 AM46 °FPassing clouds.3 mph87%29.65 "HgN/A
4:25 AM46 °FPassing clouds.3 mph87%29.68 "HgN/A
3:25 AM48 °FPassing clouds.2 mph87%29.65 "HgN/A
2:25 AM54 °FPassing clouds.2 mph72%29.68 "HgN/A
1:25 AM52 °FPassing clouds.1 mph82%29.68 "HgN/A
12:25 AM54 °FPartly cloudy.2 mph72%29.68 "HgN/A
11:25 PM
Apr 20
55 °FPassing clouds.1 mph67%29.68 "HgN/A
10:25 PM55 °FPassing clouds.1 mph63%29.68 "HgN/A
9:25 PM57 °FBroken clouds.1 mph55%29.68 "HgN/A
8:25 PM61 °FPartly sunny.5 mph55%29.65 "HgN/A
7:25 PM63 °FMild.5 mph56%29.65 "HgN/A
6:25 PM64 °FBroken clouds.7 mph52%29.62 "HgN/A
5:25 PM64 °FPassing clouds.7 mph56%29.62 "HgN/A
4:25 PM63 °FPartly sunny.13 mph59%29.62 "HgN/A
3:25 PM64 °FScattered clouds.8 mph56%29.62 "HgN/A
2:25 PM63 °FBroken clouds.9 mph59%29.65 "HgN/A
1:25 PM63 °FScattered clouds.8 mph59%29.65 "HgN/A
12:25 PM64 °FPassing clouds.14 mph60%29.65 "HgN/A
11:25 AM59 °FPassing clouds.16 mph72%29.68 "HgN/A
Weather by CustomWeather, © 2014

See weather overview